This demonstration page uses our WeatherBlox Daily Observations layout. Learn more.

39.92423, -83.80882

Hourly Observations for May 17, 2019

Temp ( °F °C ) Dew Point ( °F °C ) Humidity (%) Winds ( mph kmh ) Pressure ( in mb ) Visibility ( mi km ) Precip ( " mm )
12:42 am 00:42 Cloudy 64 18 61 16 88 88 SSW 8 13 29.77 1008 10 16.0934 0 0.0254
12:56 am 00:56 Cloudy 64 17.8 60 15.6 87 87 SSW 8 13 29.77 1008 10 16.0934 0 0.0254
1:56 am 01:56 Partly Cloudy 64 17.8 60 15.6 87 87 SW 14 22 29.75 1007 10 16.0934 0 0
2:32 am 02:32 Cloudy with Nearby Thunderstorms 64 18 61 16 88 88 N 9 15 29.8 1009 10 16.0934 0 0
2:46 am 02:46 Cloudy 64 18 61 16 88 88 NE 15 24 29.83 1010 10 16.0934 0 0
2:48 am 02:48 Cloudy with Nearby Thunderstorms 64 18 61 16 88 88 NE 17 28 29.82 1010 10 16.0934 0 0
2:56 am 02:56 Cloudy with Nearby Thunderstorms 65 18.3 59 15 81 81 NE 20 31 29.84 1011 10 16.0934 0 0
3:06 am 03:06 Cloudy with Light Thunderstorms 61 16 61 16 100 100 NE 17 28 29.84 1010 10 16.0934 0 0.0254
3:13 am 03:13 Cloudy with Thunderstorms 61 16 61 16 100 100 NE 20 31 29.84 1010 9 14.48406 0.02 0.508
3:28 am 03:28 Cloudy with Light Thunderstorms 59 15 59 15 100 100 E 9 15 29.82 1010 5 8.0467 0.07 1.778
3:35 am 03:35 Cloudy with Heavy Thunderstorms 59 15 59 15 100 100 ENE 10 17 29.82 1010 9 14.48406 0.09 2.286
3:56 am 03:56 Cloudy with Nearby Thunderstorms 59 15 59 15 100 100 Calm 29.83 1010 8 12.87472 0.15 3.81
4:10 am 04:10 Cloudy with Nearby Thunderstorms 61 16 61 16 100 100 N 9 15 29.88 1012 5 8.0467 0.04 1.016
4:15 am 04:15 Cloudy with Heavy Thunderstorms 61 16 61 16 100 100 NE 5 7 29.87 1011 2.5 4.02335 0.06 1.524
4:32 am 04:32 Cloudy with Nearby Thunderstorms 61 16 61 16 100 100 VRB 6 9 29.86 1011 3 4.82802 0.13 3.302
4:48 am 04:48 Cloudy with Nearby Thunderstorms 61 16 61 16 100 100 ESE 6 9 29.84 1010 7 11.26538 0.21 5.334
4:56 am 04:56 Cloudy with Nearby Thunderstorms 60 15.6 60 15.6 100 100 SE 7 11 29.84 1011 10 16.0934 0.26 6.604
5:47 am 05:47 Cloudy with Light Rain 61 16 61 16 100 100 SSE 8 13 29.82 1010 10 16.0934 0.3 7.62
5:56 am 05:56 Cloudy 61 16.1 61 16.1 100 100 SSE 7 11 29.83 1010 10 16.0934 0.35 8.89
7:56 am 07:56 Mostly Cloudy 61 16.1 61 16.1 100 100 SW 12 19 29.83 1010 10 16.0934 0.15 3.81
8:53 am 08:53 Mostly Cloudy with Light Thunderstorms 63 17 63 17 100 100 SSW 9 15 29.8 1009 9 14.48406 0.01 0.254
8:56 am 08:56 Mostly Cloudy with Light Thunderstorms 62 16.7 62 16.7 100 100 W 15 24 29.83 1010 10 16.0934 0.02 0.508
9:08 am 09:08 Mostly Cloudy 63 17 63 17 100 100 SW 10 17 29.83 1010 10 16.0934 0 0.0254
9:56 am 09:56 Sunny 66 18.9 65 18.3 96 96 SW 10 17 29.84 1010 10 16.0934 0.01 0.254
10:56 am 10:56 Sunny 69 20.6 67 19.4 93 93 SW 12 19 29.85 1011 10 16.0934 0 0
11:56 am 11:56 Sunny 71 21.7 68 20 90 90 WSW 12 19 29.86 1011 10 16.0934 0 0
12:56 pm 12:56 Sunny 74 23.3 68 20 82 82 WSW 13 20 29.86 1011 10 16.0934 0 0
1:56 pm 13:56 Sunny 75 23.9 67 19.4 76 76 WNW 8 13 29.86 1011 10 16.0934 0 0
2:56 pm 14:56 Sunny 77 25 69 20.6 77 77 W 10 17 29.88 1012 10 16.0934 0 0
3:56 pm 15:56 Partly Cloudy 79 26.1 65 18.3 62 62 WNW 18 30 29.87 1012 10 16.0934 0 0
4:56 pm 16:56 Partly Cloudy 79 26.1 66 18.9 65 65 WNW 17 28 29.86 1011 10 16.0934 0 0
5:56 pm 17:56 Mostly Sunny 79 26.1 66 18.9 65 65 NW 16 26 29.86 1011 10 16.0934 0 0
6:56 pm 18:56 Partly Cloudy 78 25.6 65 18.3 64 64 W 9 15 29.86 1011 10 16.0934 0 0
7:56 pm 19:56 Mostly Sunny 75 23.9 66 18.9 74 74 WSW 5 7 29.87 1012 10 16.0934 0 0
8:56 pm 20:56 Mostly Cloudy 72 22.2 65 18.3 79 79 W 5 7 29.9 1012 10 16.0934 0 0
9:56 pm 21:56 Cloudy 71 21.7 64 17.8 79 79 Calm 29.91 1013 10 16.0934 0 0
10:56 pm 22:56 Mostly Clear 67 19.4 65 18.3 93 93 Calm 29.93 1014 10 16.0934 0.01 0.254
11:56 pm 23:56 Partly Cloudy 66 18.9 65 18.3 96 96 ESE 3 6 29.93 1014 10 16.0934 0 0

Powered by AerisWeather